Regional Weather Roundup
Issued by NWS

Home | Current Version | Previous Version | Graphics & Text | Print | Product List | Glossary On
Versions: 1 2 3 4 5 6 7 8 9 10 11 12 13 14 15 16 17 18 19 20 21 22 23 24 25 26 27 28 29 30 31 32 33 34 35 36 37 38 39 40 41 42 43 44 45 46 47 48 49 50
000
ASUS43 KBIS 150220
RWRND

NORTH DAKOTA REGIONAL WEATHER ROUNDUP
NATIONAL WEATHER SERVICE BISMARCK ND
900 PM CDT SUN SEP 14 2014

NOTE: "FAIR" INDICATES FEW OR NO CLOUDS BELOW 12,000 FEET WITH NO
SIGNIFICANT WEATHER AND/OR OBSTRUCTIONS TO VISIBILITY.


NDZ001>003-009>011-017-150300-
NORTHWEST NORTH DAKOTA

CITY           SKY/WX    TMP DP  RH WIND       PRES   REMARKS
WILLISTON      MOCLDY    41  33  73 CALM      30.17R
MINOT          PTCLDY    44  34  67 CALM      30.16R
MINOT AFB      PTCLDY    40  37  87 NW1       30.16R
$$

NDZ018>021-031>035-040>046-150300-
SOUTHWEST NORTH DAKOTA

CITY           SKY/WX    TMP DP  RH WIND       PRES   REMARKS
BISMARCK       CLOUDY    51  36  56 NE5       30.18R
DICKINSON      LGT RAIN  50  35  56 N7        30.17R
GARRISON         N/A     47  37  68 CALM      30.17R
HETTINGER ARPT CLOUDY    50  34  54 NE8       30.17R
$$

NDZ004>008-012>016-024-026-027-054-150300-
NORTHEAST NORTH DAKOTA

CITY           SKY/WX    TMP DP  RH WIND       PRES   REMARKS
GRAND FORKS    CLOUDY    50  44  80 W5        30.13R
GRND FRKS AFB  CLOUDY    48  44  86 NW3       30.14R
DEVILS LAKE    CLOUDY    48  36  61 NW6       30.15R
$$

NDZ022-023-025-028>030-036>039-047>053-150300-
SOUTHEAST NORTH DAKOTA

CITY           SKY/WX    TMP DP  RH WIND       PRES   REMARKS
FARGO          CLOUDY    52  43  71 NW5       30.14R
JAMESTOWN      CLOUDY    49  43  80 NE3       30.15R
$$




USA.gov is the U.S. government's official web portal to all federal, state and local government web resources and services.